Location: Killam
(52.7910°N, 111.8608°W)
Time: 11:25:25
(UTC+00:00)

RS-15 - Visible Passes

Search period start: 15 March 2026 00:00
Search period end: 25 March 2026 00:00
Orbit: 1894 x 2151 km, 64.8° (Epoch: 14 March)

Date Brightness Start Highest point End Pass type
(mag) Time Alt. Az. Time Alt. Az. Time Alt. Az.
15 Mar 8.3 02:40:32 10° S 02:50:02 37° ESE 02:59:45 10° NE visible
15 Mar 7.9 04:50:21 10° SW 05:01:19 85° NW 05:12:44 10° NE visible
15 Mar 8.6 07:04:37 10° W 07:15:15 49° NNW 07:26:21 10° ENE visible
15 Mar 8.7 09:19:27 10° WNW 09:30:22 51° NNE 09:41:46 10° E visible
15 Mar 8.0 11:32:38 10° NW 11:44:06 89° SW 11:56:07 10° SE visible
16 Mar 8.5 02:05:50 10° SSE 02:14:30 29° ESE 02:23:20 10° NE visible
16 Mar 7.8 04:14:19 10° SW 04:25:14 83° SE 04:36:34 10° NE visible
16 Mar 8.5 06:28:01 10° W 06:38:42 52° NNW 06:49:53 10° NE visible
16 Mar 8.7 08:43:02 10° WNW 08:53:48 48° NNE 09:05:02 10° E visible
16 Mar 8.1 10:56:30 10° NW 11:07:57 80° NE 11:19:57 10° SE visible
17 Mar 7.8 03:38:30 10° SSW 03:49:16 71° SE 04:00:26 10° NE visible
17 Mar 8.4 05:51:26 10° WSW 06:02:14 57° NNW 06:13:30 10° NE visible
17 Mar 8.8 08:06:32 10° WNW 08:17:12 46° N 08:28:19 10° ENE visible
17 Mar 8.3 10:20:20 10° NW 10:31:43 70° NE 10:43:37 10° ESE visible
17 Mar 8.2 12:33:02 10° NW 12:43:56 52° WSW 12:55:18 10° S visible
18 Mar 7.9 03:02:51 10° SSW 03:13:24 59° ESE 03:24:16 10° NE visible
18 Mar 8.3 05:14:57 10° WSW 05:25:51 64° NNW 05:37:12 10° NE visible
18 Mar 8.8 07:29:58 10° WNW 07:40:34 46° N 07:51:38 10° ENE visible
18 Mar 8.4 09:44:07 10° NW 09:55:22 62° NNE 10:07:09 10° ESE visible
18 Mar 8.1 11:56:53 10° NW 12:08:06 63° WSW 12:19:49 10° SSE visible
19 Mar 8.1 02:27:30 10° S 02:37:38 48° ESE 02:48:04 10° NE visible
19 Mar 8.1 04:38:36 10° SW 04:49:32 72° NW 05:00:58 10° NE visible
19 Mar 8.8 06:53:20 10° W 07:03:56 46° N 07:14:59 10° ENE visible
19 Mar 8.5 09:07:52 10° NW 09:18:57 56° NNE 09:30:34 10° ESE visible
19 Mar 8.0 11:20:46 10° NW 11:32:10 75° SW 11:44:05 10° SSE visible
20 Mar 8.3 01:52:24 10° S 02:02:00 38° ESE 02:11:48 10° NE visible
20 Mar 8.0 04:02:23 10° SW 04:13:21 83° NW 04:24:47 10° NE visible
20 Mar 8.7 06:16:43 10° W 06:27:20 48° NNW 06:38:26 10° ENE visible
20 Mar 8.6 08:31:31 10° NW 08:42:27 52° NNE 08:53:53 10° E visible
20 Mar 8.0 10:44:39 10° NW 10:56:08 87° SW 11:08:09 10° SE visible
20 Mar 8.6 12:57:36 10° NW 13:07:15 33° WSW 13:17:16 10° SSW visible
21 Mar 7.9 03:26:19 10° SW 03:37:15 85° SE 03:48:37 10° NE visible
21 Mar 8.6 05:40:06 10° W 05:50:47 52° NNW 06:01:58 10° NE visible
21 Mar 8.7 07:55:06 10° WNW 08:05:53 48° NNE 08:17:10 10° E visible
21 Mar 8.1 10:08:31 10° NW 10:20:00 81° NE 10:32:01 10° SE visible
21 Mar 8.4 12:21:17 10° NW 12:31:38 41° WSW 12:42:24 10° S visible
22 Mar 7.9 02:50:27 10° SSW 03:01:16 73° SE 03:12:28 10° NE visible
22 Mar 8.5 05:03:31 10° WSW 05:14:18 56° NNW 05:25:35 10° NE visible
22 Mar 8.8 07:18:36 10° WNW 07:29:17 46° N 07:40:27 10° E visible
22 Mar 8.2 09:32:22 10° NW 09:43:46 72° NE 09:55:43 10° ESE visible
22 Mar 8.2 11:45:04 10° NW 11:55:55 51° WSW 12:07:14 10° S visible
23 Mar 8.0 02:14:48 10° SSW 02:25:23 60° ESE 02:36:18 10° NE visible
23 Mar 8.4 04:27:02 10° WSW 04:37:54 63° NNW 04:49:15 10° NE visible
23 Mar 8.8 06:42:03 10° WNW 06:52:40 46° N 07:03:45 10° ENE visible
23 Mar 8.3 08:56:10 10° NW 09:07:27 63° NNE 09:19:15 10° ESE visible
23 Mar 8.0 11:08:54 10° NW 11:20:06 62° WSW 11:31:47 10° SSE visible
24 Mar 8.2 03:50:38 10° WSW 04:01:35 71° NW 04:13:01 10° NE visible
24 Mar 8.8 06:05:27 10° WNW 06:16:02 46° N 06:27:06 10° ENE visible
24 Mar 8.5 08:19:54 10° NW 08:31:02 57° NNE 08:42:41 10° ESE visible
24 Mar 7.9 10:32:47 10° NW 10:44:11 74° SW 10:56:06 10° SSE visible
24 Mar 8.8 12:46:12 10° NW 12:54:42 25° W 13:03:28 10° SSW visible
